Date String (YYYY-MM-DD hh:mm:ss) UTC,Instrument flags,absolute air pressure of the measurement (hPa),sample flow rate (lpm),inlet stack bypass flow (lpm),air temperature of the measurement (°C),ambient temperature measured by the external sensor (°C),aerosol sample conditioner tube jacket temperature (°C),OPC LED temperature (°C),internal box temperature (°C),relative humidity of the measurement (%),span deviation,mass concentration of particles derived from Lorenz-Mie calculation of OPC scattering (μg/m³),mass concentration of particles derived from Lorenz-Mie calculation of OPC scattering (μg/m³),mass concentration of particles derived from Lorenz-Mie calculation of OPC scattering (μg/m³)
DateTimeUTC,F1_M11,P_M11,Q1_M11,Q2_M11,T1_M11,T2_M11,T3_M11,T4_M11,T5_M11,U1_M11,ZSPAN_M11,X0_M11,X2_M11,X1_M11
2024-05-29 14:00:00,SystemResetWarning,0830.5,5.00,000.00,029.2,028.4,000.0,037.4,030.9,025.9,0000.0,0017.32,0006.15,0004.59
2024-05-29 14:01:00,SystemResetWarning,0830.6,5.01,000.00,029.2,028.5,000.0,037.4,030.9,025.9,0000.5,0018.33,0006.17,0004.59
2024-05-29 14:02:00,SystemResetWarning,0830.4,5.00,000.00,029.2,028.5,000.0,037.4,030.9,026.0,0000.4,0018.57,0006.17,0004.60
2024-05-29 14:03:00,SystemResetWarning,0830.4,5.00,000.00,029.2,028.5,000.0,037.5,030.9,025.9,0002.9,0019.19,0006.14,0004.59
2024-05-29 14:04:00,SystemResetWarning,0830.5,5.00,000.00,029.2,028.5,000.0,037.5,030.9,026.0,0002.8,0020.29,0006.13,0004.57
2024-05-29 14:05:00,SystemResetWarning,0830.5,5.00,000.00,029.2,028.5,000.0,037.5,031.0,026.1,0002.8,0020.55,0006.14,0004.56
2024-05-29 14:06:00,SystemResetWarning,0830.5,5.00,000.00,029.2,028.5,000.0,037.5,031.0,027.1,0001.2,0020.80,0006.16,0004.56
2024-05-29 14:07:00,SystemResetWarning,0830.7,5.00,000.00,029.2,028.5,000.0,037.5,031.0,026.8,0002.3,0020.56,0006.17,0004.55
2024-05-29 14:08:00,SystemResetWarning,0830.6,5.00,000.00,029.3,028.5,000.0,037.5,031.1,026.7,0002.4,0020.58,0006.14,0004.52
2024-05-29 14:09:00,SystemResetWarning,0830.5,5.00,000.00,029.3,028.6,000.0,037.5,031.1,026.7,0002.4,0019.20,0006.13,0004.52
2024-05-29 14:10:00,SystemResetWarning,0830.5,5.00,000.00,029.3,028.6,000.0,037.5,031.1,026.4,0002.0,0020.33,0006.15,0004.53
2024-05-29 14:11:00,SystemResetWarning,0830.4,5.00,000.00,029.3,028.6,000.0,037.5,031.1,026.2,0001.8,0020.48,0006.13,0004.52
2024-05-29 14:12:00,SystemResetWarning,0830.4,5.00,000.00,029.3,028.6,000.0,037.5,031.1,026.5,0001.6,0019.84,0006.19,0004.53
2024-05-29 14:13:00,SystemResetWarning,0830.5,5.00,000.00,029.3,028.6,000.0,037.6,031.1,026.4,0001.6,0019.83,0006.25,0004.54
2024-05-29 14:14:00,SystemResetWarning,0830.6,5.00,000.00,029.3,028.6,000.0,037.6,031.1,026.6,0001.6,0019.67,0006.31,0004.57
2024-05-29 14:15:00,SystemResetWarning,0830.8,5.00,000.00,029.3,028.6,000.0,037.6,031.1,027.1,0001.7,0019.43,0006.39,0004.60
2024-05-29 14:16:00,SystemResetWarning,0830.6,5.00,000.00,029.3,028.6,000.0,037.6,031.1,027.4,0001.8,0019.76,0006.42,0004.62
2024-05-29 14:17:00,SystemResetWarning,0830.8,5.00,000.00,029.3,028.6,000.0,037.6,031.1,027.1,0001.7,0019.06,0006.41,0004.63
2024-05-29 14:18:00,SystemResetWarning,0830.6,4.99,000.00,029.3,028.6,000.0,037.6,031.1,026.8,0002.2,0018.68,0006.42,0004.65
2024-05-29 14:19:00,SystemResetWarning,0830.4,5.00,000.00,029.3,028.6,000.0,037.6,031.1,026.7,0001.9,0018.93,0006.44,0004.68
2024-05-29 14:20:00,SystemResetWarning,0830.4,5.00,000.00,029.4,028.6,000.0,037.6,031.2,026.9,0001.7,0019.50,0006.47,0004.70
2024-05-29 14:21:00,SystemResetWarning,0830.4,5.00,000.00,029.4,028.6,000.0,037.6,031.1,027.2,0002.0,0018.57,0006.50,0004.72
2024-05-29 14:22:00,SystemResetWarning,0830.4,5.00,000.00,029.4,028.6,000.0,037.6,031.2,026.9,0001.9,0018.42,0006.55,0004.74
2024-05-29 14:23:00,SystemResetWarning,0830.4,5.00,000.00,029.4,028.6,000.0,037.7,031.1,026.9,0001.7,0018.59,0006.47,0004.74
2024-05-29 14:24:00,SystemResetWarning,0830.4,4.99,000.00,029.4,028.7,000.0,037.7,031.2,027.0,0001.8,0018.67,0006.41,0004.75
2024-05-29 14:25:00,SystemResetWarning,0830.4,5.00,000.00,029.4,028.7,000.0,037.7,031.2,026.8,0001.4,0018.66,0006.44,0004.77
2024-05-29 14:26:00,SystemResetWarning,0830.4,5.00,000.00,029.4,028.7,000.0,037.7,031.1,027.1,0001.3,0019.62,0006.39,0004.78
2024-05-29 14:27:00,SystemResetWarning,0830.4,5.01,000.00,029.4,028.7,000.0,037.7,031.2,026.9,0001.8,0020.19,0006.41,0004.79
2024-05-29 14:28:00,SystemResetWarning,0830.4,5.01,000.00,029.4,028.7,000.0,037.7,031.2,026.7,0002.1,0022.19,0006.45,0004.81
2024-05-29 14:29:00,SystemResetWarning,0830.4,5.00,000.00,029.4,028.7,000.0,037.7,031.2,026.3,0002.1,0023.59,0006.47,0004.83
2024-05-29 14:30:00,SystemResetWarning,0830.5,5.00,000.00,029.4,028.7,000.0,037.7,031.2,026.4,0002.2,0022.71,0006.45,0004.84
2024-05-29 14:31:00,SystemResetWarning,0830.4,4.99,000.00,029.5,028.7,000.0,037.7,031.2,026.7,0001.9,0022.25,0006.44,0004.84
2024-05-29 14:32:00,SystemResetWarning,0830.5,5.00,000.00,029.5,028.7,000.0,037.7,031.2,026.7,0001.5,0021.60,0006.43,0004.84
2024-05-29 14:33:00,SystemResetWarning,0830.4,4.99,000.00,029.5,028.7,000.0,037.7,031.2,026.5,0001.1,0021.22,0006.40,0004.83
2024-05-29 14:34:00,SystemResetWarning,0830.5,4.99,000.00,029.5,028.7,000.0,037.7,031.2,026.5,0001.3,0022.12,0006.48,0004.85
2024-05-29 14:35:00,SystemResetWarning,0830.5,4.99,000.00,029.5,028.7,000.0,037.8,031.2,026.7,0001.0,0022.59,0006.52,0004.85
2024-05-29 14:36:00,SystemResetWarning,0830.4,5.00,000.00,029.5,028.7,000.0,037.8,031.2,026.5,0001.2,0024.40,0006.51,0004.84
2024-05-29 14:37:00,SystemResetWarning,0830.4,4.99,000.00,029.5,028.7,000.0,037.8,031.2,026.4,0001.4,0023.59,0006.53,0004.84
2024-05-29 14:38:00,SystemResetWarning,0830.4,5.00,000.00,029.5,028.8,000.0,037.8,031.2,026.3,0001.3,0022.42,0006.54,0004.85
2024-05-29 14:39:00,SystemResetWarning,0830.3,5.00,000.00,029.5,028.8,000.0,037.8,031.2,026.5,0000.6,0020.61,0006.48,0004.85
2024-05-29 14:40:00,SystemResetWarning,0830.4,5.01,000.00,029.5,028.8,000.0,037.8,031.2,026.4,0000.6,0019.32,0006.49,0004.84
2024-05-29 14:41:00,SystemResetWarning,0830.3,5.01,000.00,029.5,028.8,000.0,037.8,031.3,026.2,0001.0,0019.98,0006.50,0004.84
2024-05-29 14:42:00,SystemResetWarning,0830.3,4.99,000.00,029.6,028.8,000.0,037.8,031.3,026.4,0001.2,0021.09,0006.48,0004.84
2024-05-29 14:43:00,SystemResetWarning,0830.4,4.99,000.00,029.6,028.8,000.0,037.8,031.3,026.3,0001.8,0022.32,0006.47,0004.83
2024-05-29 14:44:00,SystemResetWarning,0830.4,5.01,000.00,029.6,028.8,000.0,037.8,031.3,026.4,0001.9,0022.51,0006.46,0004.84
2024-05-29 14:45:00,SystemResetWarning,0830.3,5.01,000.00,029.6,028.9,000.0,037.8,031.3,026.9,0001.9,0021.78,0006.44,0004.82
2024-05-29 14:46:00,SystemResetWarning,0830.4,5.00,000.00,029.6,028.9,000.0,037.8,031.3,027.2,0002.0,0021.18,0006.46,0004.83
2024-05-29 14:47:00,SystemResetWarning,0830.4,4.99,000.00,029.6,028.9,000.0,037.9,031.3,027.4,0001.9,0019.50,0006.46,0004.84
2024-05-29 14:48:00,SystemResetWarning,0830.3,4.99,000.00,029.6,028.9,000.0,037.9,031.3,027.6,0001.7,0019.53,0006.39,0004.84
2024-05-29 14:49:00,SystemResetWarning,0830.3,5.00,000.00,029.6,028.9,000.0,037.9,031.4,027.5,0001.5,0020.50,0006.39,0004.84
2024-05-29 14:50:00,SystemResetWarning,0830.3,5.01,000.00,029.6,028.9,000.0,037.9,031.4,028.0,0001.7,0022.61,0006.46,0004.86
2024-05-29 14:51:00,SystemResetWarning,0830.3,5.00,000.00,029.7,028.9,000.0,037.9,031.4,027.7,0001.5,0022.37,0006.49,0004.88
2024-05-29 14:52:00,SystemResetWarning,0830.3,5.00,000.00,029.7,028.9,000.0,037.9,031.4,027.3,0001.5,0022.60,0006.57,0004.91
2024-05-29 14:53:00,SystemResetWarning,0830.3,4.99,000.00,029.7,028.9,000.0,037.9,031.4,027.0,0001.8,0023.34,0006.59,0004.94
2024-05-29 14:54:00,SystemResetWarning,0830.2,5.00,000.00,029.7,028.9,000.0,037.9,031.4,027.1,0001.2,0022.90,0006.62,0004.96
2024-05-29 14:55:00,SystemResetWarning,0830.2,5.00,000.00,029.7,028.9,000.0,037.9,031.4,027.4,0001.7,0023.20,0006.69,0004.98
2024-05-29 14:56:00,SystemResetWarning,0830.2,5.00,000.00,029.7,028.9,000.0,038.0,031.4,027.3,0001.7,0022.35,0006.68,0005.01
2024-05-29 14:57:00,SystemResetWarning,0830.2,5.00,000.00,029.7,028.9,000.0,038.0,031.4,027.5,0002.4,0023.13,0006.65,0005.02
2024-05-29 14:58:00,SystemResetWarning,0830.2,5.00,000.00,029.7,028.9,000.0,038.0,031.4,027.3,0002.9,0024.13,0006.63,0005.02
2024-05-29 14:59:00,SystemResetWarning,0830.2,5.01,000.00,029.7,028.9,000.0,038.0,031.4,027.4,0003.2,0024.73,0006.69,0005.03
